This is the latest recevied weather packets stored in our database for station/object NO4D. If no packets are shown the sender has not sent any weather packets the latest 10 day(s).
| Time | Temp. | Humidity | Pressure | Rain* | Wind** | Luminosity | Snow |
|---|---|---|---|---|---|---|---|
| 1777550569 | 15° C | 99% | 1010.6 hPa | 1.78 mm | - | 16 W/m² | - |
| 1777550265 | 15° C | 99% | 1010.9 hPa | 1.78 mm | - | 9 W/m² | - |
| 1777549962 | 15° C | 99% | 1011.1 hPa | 0 mm | - | 9 W/m² | - |
| 1777549658 | 15° C | 99% | 1011.5 hPa | 1.27 mm | - | 6 W/m² | - |
| 1777549353 | 15° C | 99% | 1011.1 hPa | 3.05 mm | - | 8 W/m² | - |
| 1777549052 | 15° C | 99% | 1010.8 hPa | 3.05 mm | - | 8 W/m² | - |
| 1777548747 | 15° C | 99% | 1011.3 hPa | 3.05 mm | - | 6 W/m² | - |
| 1777548445 | 15° C | 99% | 1011.4 hPa | 1.78 mm | - | 4 W/m² | - |
| 1777548141 | 15° C | 99% | 1011.5 hPa | 1.27 mm | - | 0 W/m² | - |
| 1777547838 | 15° C | 98% | 1011.5 hPa | 3.05 mm | - | 0 W/m² | - |
| 1777547534 | 15° C | 98% | 1011.6 hPa | 3.05 mm | - | 0 W/m² | - |
| 1777547232 | 15° C | 98% | 1011.7 hPa | 3.05 mm | - | 0 W/m² | - |
| 1777546928 | 15° C | 97% | 1012 hPa | 4.83 mm | - | 0 W/m² | - |
| 1777546625 | 15° C | 97% | 1012.1 hPa | 4.83 mm | - | 0 W/m² | - |
| 1777546321 | 15° C | 96% | 1012.1 hPa | 4.83 mm | - | 0 W/m² | - |
| 1777546019 | 15° C | 96% | 1012.2 hPa | 7.11 mm | - | 0 W/m² | - |
| 1777545715 | 15.56° C | 95% | 1012.4 hPa | 13.72 mm | - | 0 W/m² | - |
| 1777545412 | 15.56° C | 94% | 1012.3 hPa | 15.49 mm | - | 0 W/m² | - |
| 1777545109 | 16.11° C | 92% | 1012.2 hPa | 10.16 mm | - | 0 W/m² | - |
| 1777544807 | 16.67° C | 88% | 1012.1 hPa | 6.1 mm | - | 0 W/m² | - |
| 1777544502 | 17.22° C | 82% | 1011.8 hPa | 1.78 mm | - | 0 W/m² | - |
| 1777544199 | 17.78° C | 74% | 1011.3 hPa | 0 mm | - | 0 W/m² | - |
| 1777543896 | 17.78° C | 72% | 1010 hPa | 0 mm | - | 0 W/m² | - |
| 1777543592 | 17.78° C | 71% | 1009.3 hPa | 0 mm | - | 0 W/m² | - |
| 1777543289 | 17.78° C | 72% | 1009.2 hPa | 0 mm | - | 0 W/m² | - |
* Rain latest hour (hover to see other rain measurements)
** Current wind speed in m/s (hover to see current wind gust speed)